EW5448 Weather Reports


Display with metric or nautical units.
time (UTC)temp
F
wind
direction
speed
MPH
gust
MPH
rain 1hr
in
rain 24hr
in
rain mn
in
humidity
%
barometer
mb
20260505101556 64 142 5.0 9.0 0.00 0.00 0.00 45 994.4
20260505100055 65 130 6.0 11.0 0.00 0.00 0.00 44 994.3
20260505094533 66 123 6.0 13.0 0.00 0.00 0.00 43 994.2
20260505093031 66 140 7.0 12.0 0.00 0.00 0.00 41 994.3
20260505091529 66 143 1.0 8.0 0.00 0.00 0.00 40 994.3
20260505090026 66 138 4.0 8.0 0.00 0.00 0.00 40 994.4
20260505084525 66 227 0.0 4.0 0.00 0.00 0.00 40 994.5
20260505083024 66 110 1.0 4.0 0.00 0.00 0.00 40 994.5
20260505081520 67 148 1.0 6.0 0.00 0.00 0.00 39 994.7
20260505080019 67 208 3.0 7.0 0.00 0.00 0.00 38 994.6
20260505074517 67 155 0.0 4.0 0.00 0.00 0.00 37 994.6
20260505073031 68 120 3.0 7.0 0.00 0.00 0.00 36 994.5
20260505071512 68 154 0.0 1.0 0.00 0.00 0.00 35 994.7
20260505070013 69 150 0.0 4.0 0.00 0.00 0.00 34 994.5
20260505064513 69 160 3.0 6.0 0.00 0.00 0.00 34 994.4
20260505063007 69 163 4.0 10.0 0.00 0.00 0.00 35 994.2
20260505061519 69 145 4.0 9.0 0.00 0.00 0.00 36 994.4
20260505060005 70 214 1.0 6.0 0.00 0.00 0.00 34 994.4
20260505054505 71 136 4.0 11.0 0.00 0.00 0.00 32 994.3
20260505053003 72 137 5.0 15.0 0.00 0.00 0.00 32 994.1
20260505051507 72 131 8.0 14.0 0.00 0.00 0.00 31 993.9
20260505041503 73 122 7.0 12.0 0.00 0.00 0.00 29 993.9
20260505040101 74 136 7.0 14.0 0.00 0.00 0.00 28 993.8
20260505034600 74 171 6.0 14.0 0.00 0.00 0.00 27 993.7
20260505033104 75 161 8.0 18.0 0.00 0.00 0.00 27 993.3
20260505031559 75 151 10.0 18.0 0.00 0.00 0.00 26 993.1
20260505030059 75 160 10.0 19.0 0.00 0.00 0.00 25 993.0
20260505024559 76 144 7.0 18.0 0.00 0.00 0.00 25 992.6
20260505023104 76 147 9.0 18.0 0.00 0.00 0.00 24 992.6
20260505021557 77 148 8.0 18.0 0.00 0.00 0.00 24 992.6
20260505020057 78 110 8.0 21.0 0.00 0.00 0.00 24 992.4
20260505014603 78 148 7.0 16.0 0.00 0.00 0.00 25 992.4
20260505013057 78 153 11.0 18.0 0.00 0.00 0.00 25 992.6
20260505011555 79 136 9.0 19.0 0.00 0.00 0.00 26 992.6
20260505010115 79 205 9.0 21.0 0.00 0.00 0.00 27 992.6
20260505004554 79 101 9.0 19.0 0.00 0.00 0.00 27 992.6
20260505003055 80 218 6.0 15.0 0.00 0.00 0.00 26 992.7
20260505001552 80 159 4.0 14.0 0.00 0.00 0.00 26 992.8
20260505000052 80 139 8.0 15.0 0.00 0.00 0.00 26 992.8
20260504234551 80 200 5.0 13.0 0.00 0.00 0.00 26 992.8
20260504233052 80 142 6.0 15.0 0.00 0.00 0.00 26 992.9
20260504231556 81 198 5.0 14.0 0.00 0.00 0.00 24 993.2
20260504230050 80 108 5.0 12.0 0.00 0.00 0.00 26 993.2
20260504224548 80 187 7.0 16.0 0.00 0.00 0.00 27 993.3
20260504223059 80 192 6.0 13.0 0.00 0.00 0.00 27 993.5
20260504221601 79 144 8.0 16.0 0.00 0.00 0.00 28 993.6
20260504220047 80 150 7.0 19.0 0.00 0.00 0.00 28 993.9
20260504214551 79 157 8.0 15.0 0.00 0.00 0.00 29 994.1
20260504213059 79 189 8.0 15.0 0.00 0.00 0.00 29 994.4
20260504211548 78 136 8.0 13.0 0.00 0.00 0.00 29 994.5
20260504210045 78 113 5.0 18.0 0.00 0.00 0.00 30 994.8
20260504204544 77 112 8.0 18.0 0.00 0.00 0.00 31 994.8
20260504203049 77 152 8.0 20.0 0.00 0.00 0.00 31 995.1
20260504201543 77 128 11.0 19.0 0.00 0.00 0.00 30 995.1
20260504200043 77 144 10.0 15.0 0.00 0.00 0.00 32 995.1
20260504194546 78 188 7.0 18.0 0.00 0.00 0.00 31 995.3
20260504193041 76 154 9.0 16.0 0.00 0.00 0.00 33 995.4
20260504191542 76 121 9.0 21.0 0.00 0.00 0.00 33 995.3
20260504190040 75 161 10.0 18.0 0.00 0.00 0.00 33 995.4
20260504184540 75 119 8.0 16.0 0.00 0.00 0.00 34 995.5
20260504183042 74 130 9.0 15.0 0.00 0.00 0.00 35 995.7
20260504181539 74 119 8.0 14.0 0.00 0.00 0.00 35 995.9
20260504180046 74 201 5.0 13.0 0.00 0.00 0.00 35 996.0
20260504174540 74 130 7.0 14.0 0.00 0.00 0.00 35 996.0
20260504173036 73 207 9.0 14.0 0.00 0.00 0.00 36 995.7
20260504171535 73 196 8.0 18.0 0.00 0.00 0.00 35 995.6